Miscellaneous Local Product
Issued by NWS Hastings, NE

Home | Current Version | Previous Version | Graphics & Text | Print | Product List | Glossary On
Versions: 1 2 3 4 5 6 7 8 9 10 11 12 13 14 15 16 17 18 19 20 21 22 23 24 25 26 27 28 29 30 31 32 33 34 35 36 37 38 39 40 41 42 43 44 45 46 47 48 49 50
000
AXUS43 KGID 190702
MISGRI

GID CWA HOURLY WEATHER ROUNDUP
NATIONAL WEATHER SERVICE HASTINGS NE
200 AM CDT SAT AUG 19 2017

NOTE: "FAIR" INDICATES FEW OR NO CLOUDS BELOW 12,000 FEET WITH NO
SIGNIFICANT WEATHER AND/OR OBSTRUCTIONS TO VISIBILITY.

...SOUTH CENTRAL NEBRASKA...

CITY           SKY/WX    TMP DP  RH WIND       PRES   REMARKS
GRAND ISLAND   CLEAR     64  62  93 NE6       30.01F
HASTINGS       CLEAR     67  60  78 NE5       30.02S
KEARNEY        CLEAR     65  61  87 CALM      30.02F
ORD            CLEAR     59  56  89 CALM      30.01F
YORK           CLEAR     64  64 100 N5        30.00S
AURORA         CLEAR     63  62  96 N6        30.00F
LEXINGTON      CLEAR     62  59  88 CALM      30.03S
HOLDREGE       CLEAR     60  57  88 NE8       30.02S
HEBRON         CLEAR     64  63  95 CALM      29.98S

...NEBRASKA PANHANDLE...

CITY           SKY/WX    TMP DP  RH WIND       PRES   REMARKS
CHADRON        CLEAR     63  48  58 S5        29.97F
ALLIANCE       CLEAR     60  50  69 SE6       30.03F
SCOTTSBLUFF    CLEAR     62  51  67 E9        30.03F
SIDNEY         CLEAR     60  49  66 S10       30.09F

...WESTERN AND NORTH CENTRAL NEBRASKA...

CITY           SKY/WX    TMP DP  RH WIND       PRES   REMARKS
VALENTINE      CLEAR     64  54  69 SE6       30.02S
AINSWORTH      CLEAR     59  57  91 S7        30.04R
ONEILL         CLEAR     60  60  99 S3        30.01F
BROKEN BOW     CLEAR     62  57  83 SE3       30.03S
IMPERIAL       CLEAR     66  56  70 SW8       30.05S
NORTH PLATTE   CLEAR     61  58  90 E6        30.04S
MCCOOK         CLEAR     66  58  75 SW9       30.02S

...EASTERN NEBRASKA...

CITY           SKY/WX    TMP DP  RH WIND       PRES   REMARKS
NORFOLK        CLEAR     58  56  93 SW6       29.98S
SO SIOUX CITY  CLEAR     62  60  93 NW5       29.93F
TEKAMAH        CLEAR     61  59  93 W6        29.94F
COLUMBUS       CLEAR     64  59  83 CALM      29.99F
ALBION         CLEAR     60  59  96 CALM      30.01F
OMAHA EPPLEY   PTCLDY    66  61  84 N7        29.94S
OFFUTT AFB     CLEAR     69  60  72 N3        29.93S
MILLARD        CLEAR     73  62  68 NW8       29.95S
LINCOLN        CLEAR     67  65  93 N3        29.97S
NEBRASKA CITY  CLEAR     69  68  99 NW6       29.95F
BEATRICE       CLEAR     63  61  94 CALM      29.97R
FALLS CITY     CLEAR     65  64  97 CALM      29.93F

...NORTHERN KANSAS...

CITY           SKY/WX    TMP DP  RH WIND       PRES   REMARKS
GOODLAND       CLEAR     62  56  80 S8        30.08F
HILL CITY      CLEAR     60  58  92 NW3       30.02S
NORTON         SUNNY     59  54  82 SW3       30.01
PHILLIPSBURG   CLEAR     59  59 100 W3        29.99F
SMITH CENTER   MOCLDY    61  57  88 CALM      29.99F
HAYS           CLEAR     64  61  90 NW3       30.01F
RUSSELL        CLEAR     68  64  87 E3        29.99S
CONCORDIA      CLEAR     72  64  76 VRB3      29.97S
SALINA         CLEAR     74  67  78 CALM      29.96F
TOPEKA         CLEAR     69  68  96 CALM      29.93F



USA.gov is the U.S. government's official web portal to all federal, state and local government web resources and services.